Wind_Speed
31 32 30 28 27 23 20 18 18 18 20 22 23 22 21 22 23 23 22 20 23 26 30 29 35 33 35 40 46 43 33 40 31 30 25 23 25 31 32 26 26 23 22 22 26
33 33 33 31 27 24 21 17 17 19 21 22 23 21 19 20 20 19 20 20 18 25 28 27 26 26 34 36 51 45 39 46 36 25 19 29 24 28 29 27 26 23 21 19 25
32 33 35 33 28 25 20 17 17 19 20 21 20 18 17 16 15 15 10 13 22 24 25 26 26 30 35 34 41 41 36 41 41 32 29 25 28 24 27 26 30 25 22 20 24
35 33 34 33 29 25 18 16 16 19 19 19 17 16 13 11 9 11 12 16 20 10 25 28 30 29 34 37 36 42 46 44 36 26 23 21 21 22 23 27 30 26 22 24 21
34 35 34 32 28 24 17 16 16 19 17 17 15 14 12 11 13 15 19 20 9 9 18 27 35 26 32 34 31 33 30 42 36 30 13 23 28 19 22 21 24 23 24 24 23
34 34 34 31 27 22 16 16 16 16 16 13 15 14 12 14 11 14 18 13 13 11 9 21 29 32 27 26 35 38 14 30 38 36 19 25 26 26 24 23 25 23 19 22 25
33 34 33 29 25 19 16 15 16 13 12 12 14 12 11 11 12 17 14 11 9 8 10 18 23 32 19 20 33 15 32 17 26 40 31 26 24 28 26 25 22 24 22 20 23
33 33 31 28 23 17 15 15 13 10 8 11 12 10 8 8 10 10 9 14 8 11 12 22 12 36 23 23 30 24 22 26 23 21 33 27 25 24 21 24 21 21 24 19 19
32 33 30 26 21 16 14 13 10 8 6 11 8 9 5 7 7 9 10 11 8 10 19 14 23 31 19 30 33 27 25 27 23 23 24 30 30 33 21 21 20 19 20 21 19
31 32 29 23 19 14 13 11 9 5 4 12 6 6 6 10 10 11 11 8 8 10 11 10 28 26 25 25 23 24 29 25 23 27 27 15 16 17 26 25 22 21 22 24 22
29 30 26 21 17 13 13 10 7 2 3 13 11 10 11 10 8 10 7 7 6 7 2 9 26 29 30 33 20 30 38 31 21 23 20 19 22 16 24 25 27 28 25 23 22
27 27 23 19 15 12 11 9 6 1 6 13 9 7 7 7 6 4 5 4 3 2 2 14 16 27 27 23 19 20 24 23 25 18 21 29 25 22 20 26 26 25 30 29 27
26 24 20 16 13 11 10 8 6 1 5 13 15 12 13 7 9 5 2 1 2 2 8 12 15 19 24 24 17 19 23 26 24 20 15 12 15 23 22 28 26 21 19 24 34
24 21 17 13 11 9 8 6 4 2 3 14 14 15 15 14 9 8 6 8 4 11 13 12 21 26 27 26 22 20 22 29 26 20 7 18 4 22 21 23 27 26 26 27 23
22 17 15 10 8 6 5 5 4 4 4 13 11 13 16 16 8 10 13 13 10 5 14 20 25 29 22 24 18 20 21 17 20 16 13 23 8 15 9 24 20 21 21 26 30
18 14 12 8 6 4 4 5 5 3 3 9 12 15 11 16 14 19 18 16 13 10 16 22 19 20 21 15 16 26 23 20 20 11 2 13 11 7 11 11 6 9 12 17 23
15 11 9 6 2 2 5 5 3 7 3 8 10 11 18 20 22 15 18 11 11 11 15 15 24 22 20 18 16 30 23 5 3 2 4 10 10 2 8 12 10 10 11 13 14
12 9 6 3 1 4 5 7 5 5 6 8 14 14 15 18 17 14 13 15 12 13 15 10 8 13 19 18 11 25 11 5 5 3 3 5 9 7 14 11 15 12 9 15 21
9 6 3 1 3 6 6 5 5 9 9 9 13 9 7 10 10 9 14 13 12 9 6 6 2 8 14 14 21 19 5 5 3 2 3 5 5 6 14 13 12 18 20 14 17
7 4 3 3 6 8 6 7 9 9 8 9 5 5 10 9 6 6 6 8 5 9 8 7 7 6 14 11 9 8 6 3 1 2 3 6 6 8 16 15 17 14 13 9 9
6 5 5 7 9 9 8 10 11 9 10 7 9 6 9 7 10 8 3 3 4 5 8 9 3 10 14 10 11 8 7 3 2 1 3 1 4 7 13 8 7 8 6 4 5
6 6 8 10 12 10 12 14 12 11 8 15 12 11 2 6 6 4 1 1 2 8 7 4 5 7 7 9 15 11 14 8 2 2 1 1 1 9 8 7 4 3 2 1 5
7 7 10 13 11 12 15 13 12 13 13 13 10 12 8 5 3 2 3 1 5 12 10 7 5 9 3 10 16 18 16 16 12 9 5 3 3 9 8 7 6 7 12 18 17
8 9 11 15 12 15 16 15 16 16 12 10 12 8 9 4 4 1 2 2 5 8 8 7 8 3 7 3 5 16 20 17 14 10 21 21 12 16 14 8 11 13 15 15 18
9 9 9 12 15 14 18 15 17 17 13 11 11 12 7 3 7 5 2 1 6 6 7 4 5 7 7 6 5 8 12 21 23 26 20 29 28 24 18 18 22 15 16 17 19
9 8 10 12 16 15 18 17 17 17 17 15 13 11 10 7 4 6 3 6 4 5 3 4 3 3 6 7 11 13 14 17 20 24 31 35 36 27 28 31 30 31 30 31 29
11 9 11 12 16 18 16 20 15 15 16 18 16 14 12 7 6 3 2 2 2 2 4 1 2 4 3 3 8 13 12 16 23 26 28 31 28 25 24 22 23 29 34 34 33
Wind_Direction
341 340 341 334 329 319 314 298 301 308 311 310 306 301 297 295 293 288 286 265 256 244 242 231 226 221 211 209 203 202 204 206 194 190 199 197 195 187 196 194 194 193 196 198 204
340 340 341 337 331 321 314 296 301 309 311 309 305 301 302 299 296 291 280 261 255 251 236 231 228 212 208 209 207 199 207 204 189 197 180 189 190 186 192 192 192 200 184 187 198
340 340 341 336 332 324 315 297 302 310 310 308 304 309 306 305 300 298 290 284 250 249 230 219 218 205 203 205 208 216 203 200 196 200 179 180 198 194 202 201 204 201 190 191 198
338 340 340 336 331 327 315 302 305 310 310 307 307 309 306 305 303 301 312 299 282 238 225 225 205 197 201 207 206 214 205 203 190 197 180 174 189 195 202 211 213 207 203 197 195
337 338 340 336 332 328 316 307 310 313 314 308 311 310 301 307 304 315 324 311 306 286 224 217 200 193 198 208 205 206 221 210 207 202 176 187 174 190 210 212 213 212 212 206 202
335 338 338 336 332 329 318 312 318 318 314 309 314 310 297 303 303 312 312 316 307 298 215 221 201 179 196 206 201 208 179 212 214 215 204 181 185 192 213 209 218 212 214 213 208
334 336 337 336 331 329 319 318 323 324 314 316 319 311 301 308 314 325 312 324 315 291 239 214 204 183 208 179 196 189 199 183 212 219 215 201 179 188 204 207 216 217 219 218 217
331 335 337 334 332 327 320 325 328 326 316 324 321 312 302 309 325 326 327 334 329 294 207 215 225 200 188 178 178 176 188 197 209 207 219 223 212 181 183 205 203 215 219 219 217
330 335 337 333 331 325 324 328 333 328 319 336 325 321 307 311 333 338 355 338 346 310 284 189 213 191 188 178 169 178 179 194 196 208 216 224 233 192 195 207 206 217 224 224 219
328 333 336 332 329 324 327 335 341 322 330 349 329 340 321 283 314 312 330 351 349 348 287 216 199 189 174 156 172 177 185 191 198 197 218 199 200 223 196 215 213 218 232 236 231
326 332 334 329 327 327 329 347 339 315 345 4 341 333 327 333 307 303 339 348 11 351 226 173 192 207 172 177 168 182 189 192 192 206 193 190 202 187 204 208 215 210 205 214 214
324 331 332 327 326 326 334 351 347 353 18 14 4 14 15 1 326 349 346 356 23 316 305 147 181 195 175 159 143 187 180 180 192 196 205 213 221 214 208 209 219 227 224 222 230
321 331 329 325 326 329 342 357 358 339 6 6 17 21 3 9 10 20 41 98 163 138 99 125 155 176 167 157 165 160 180 170 180 184 191 195 237 222 225 224 226 238 229 230 233
318 330 326 324 329 328 352 17 29 43 40 4 14 30 19 358 39 48 87 98 64 53 68 105 140 159 164 182 184 176 179 198 193 183 183 178 217 226 231 229 227 227 221 221 227
316 326 325 324 322 336 14 46 61 52 41 350 29 43 48 52 55 93 95 94 79 55 76 89 136 150 156 162 174 187 189 191 155 168 179 197 221 206 215 225 232 234 238 228 224
312 321 322 325 323 359 59 76 58 76 49 26 63 51 34 58 69 87 81 94 83 72 80 100 153 140 121 132 165 166 160 157 175 175 130 185 207 209 208 196 212 224 227 232 237
307 314 320 324 324 66 90 80 82 63 79 41 83 69 63 72 82 61 61 105 79 82 97 89 97 98 113 120 150 148 135 106 61 59 188 183 198 212 188 209 231 239 239 242 248
300 308 315 307 112 103 109 106 79 84 120 95 106 100 87 88 86 63 61 71 84 83 75 66 91 115 124 132 141 146 46 104 152 165 221 165 196 223 205 234 251 264 255 257 260
286 299 296 243 152 132 128 105 124 130 113 107 98 75 95 94 108 92 64 98 85 78 90 105 99 160 140 126 151 171 128 86 87 124 105 203 226 222 241 250 246 256 265 247 241
267 274 223 185 157 143 139 126 136 147 146 113 85 81 123 104 84 90 63 109 95 85 99 81 116 166 169 147 149 166 161 160 51 104 168 225 231 217 209 226 246 245 241 246 235
239 237 199 177 155 150 146 134 146 155 150 134 112 112 143 100 91 76 48 129 155 123 108 108 116 161 175 193 180 176 172 159 184 215 154 177 286 247 219 228 260 224 236 263 259
220 226 189 174 156 155 139 147 150 154 155 140 130 127 102 114 69 49 59 49 148 165 156 99 103 150 175 159 188 196 188 179 216 222 138 73 219 156 218 246 249 205 159 39 332
198 207 179 175 167 159 156 161 164 163 155 158 155 160 153 154 175 215 237 106 133 165 163 151 130 115 142 222 223 227 209 208 224 250 241 154 201 211 235 229 240 245 268 282 281
191 190 183 177 171 165 166 165 167 167 164 165 162 159 160 171 170 189 287 139 165 178 178 169 158 122 175 158 219 226 227 220 219 230 237 235 241 200 215 236 292 300 305 299 288
188 189 173 189 181 169 164 177 170 173 175 172 168 151 137 153 132 131 137 316 172 174 182 180 175 215 248 247 273 253 240 231 235 242 237 258 249 237 217 247 272 263 261 271 263
186 186 169 167 168 177 173 179 180 178 177 181 179 174 175 169 171 178 147 106 73 189 162 180 47 324 321 266 269 270 255 247 246 252 250 257 262 261 261 260 257 260 264 268 270
185 184 158 171 172 182 185 174 184 193 182 188 189 194 194 191 192 222 225 172 162 127 188 111 16 341 288 280 290 288 281 266 266 264 263 258 274 288 283 269 260 257 259 265 271
Height
3099 3095 3090 3085 3080 3078 3074 3071 3070 3068 3066 3064 3061 3059 3056 3054 3052 3050 3050 3050 3049 3051 3052 3056 3059 3067 3073 3078 3085 3091 3095 3099 3104 3113 3119 3123 3127 3131 3135 3136 3138 3140 3144 3150 3153
3096 3091 3086 3082 3077 3073 3070 3067 3066 3064 3062 3059 3057 3054 3051 3049 3048 3046 3044 3044 3045 3044 3047 3052 3055 3061 3066 3072 3078 3083 3086 3093 3105 3107 3114 3120 3124 3128 3130 3132 3136 3140 3141 3146 3149
3093 3088 3083 3078 3073 3069 3066 3063 3062 3060 3058 3055 3052 3049 3047 3045 3044 3041 3040 3039 3038 3038 3042 3046 3051 3055 3060 3066 3070 3067 3079 3090 3101 3103 3109 3116 3122 3126 3127 3130 3134 3138 3141 3144 3145
3091 3085 3080 3074 3069 3065 3062 3059 3058 3056 3054 3051 3048 3045 3043 3042 3042 3038 3037 3034 3031 3032 3036 3039 3044 3050 3054 3059 3066 3073 3078 3085 3094 3100 3105 3112 3118 3122 3125 3127 3130 3136 3140 3143 3144
3087 3082 3076 3071 3066 3062 3059 3057 3055 3052 3050 3047 3045 3042 3041 3040 3038 3035 3033 3031 3029 3028 3030 3034 3037 3045 3050 3056 3064 3070 3073 3081 3091 3098 3104 3109 3113 3120 3124 3126 3129 3133 3137 3141 3143
3085 3078 3072 3067 3062 3059 3056 3054 3052 3049 3047 3044 3042 3040 3038 3038 3035 3033 3031 3030 3027 3027 3027 3030 3033 3041 3048 3053 3059 3063 3074 3081 3086 3092 3102 3107 3111 3113 3121 3125 3126 3131 3134 3138 3141
3081 3075 3069 3064 3059 3056 3054 3051 3049 3046 3044 3042 3040 3037 3036 3037 3033 3030 3028 3028 3026 3026 3027 3028 3031 3038 3042 3052 3059 3065 3072 3077 3081 3091 3099 3103 3109 3112 3120 3123 3124 3128 3133 3135 3139
3078 3072 3066 3061 3057 3053 3051 3049 3046 3043 3042 3040 3037 3035 3034 3033 3031 3030 3028 3025 3025 3024 3024 3025 3026 3033 3038 3047 3055 3063 3072 3078 3082 3088 3094 3103 3106 3113 3117 3122 3123 3125 3130 3133 3136
3074 3068 3063 3057 3054 3051 3049 3046 3044 3041 3040 3038 3036 3034 3033 3031 3030 3028 3028 3025 3023 3022 3022 3022 3026 3031 3035 3044 3053 3060 3066 3076 3082 3087 3093 3098 3101 3108 3115 3120 3121 3123 3126 3130 3133
3071 3065 3059 3055 3051 3049 3047 3044 3042 3040 3040 3038 3036 3036 3033 3031 3030 3028 3026 3025 3023 3022 3023 3024 3027 3032 3035 3040 3047 3054 3066 3075 3078 3086 3092 3098 3103 3103 3109 3116 3118 3121 3123 3126 3131
3068 3062 3056 3052 3048 3047 3044 3042 3043 3041 3039 3038 3036 3033 3031 3030 3028 3026 3025 3024 3023 3021 3023 3022 3029 3033 3040 3045 3051 3059 3065 3074 3081 3085 3091 3097 3102 3105 3108 3112 3114 3117 3119 3122 3125
3065 3059 3054 3050 3047 3045 3043 3041 3040 3040 3039 3038 3036 3033 3031 3029 3027 3025 3026 3026 3023 3023 3022 3027 3029 3035 3042 3049 3054 3061 3067 3073 3081 3087 3092 3097 3101 3103 3107 3109 3112 3114 3116 3120 3123
3061 3056 3051 3048 3045 3043 3041 3040 3038 3038 3040 3039 3036 3033 3032 3029 3027 3025 3025 3024 3023 3024 3025 3028 3032 3037 3043 3050 3056 3062 3069 3074 3081 3084 3090 3093 3099 3098 3101 3104 3107 3109 3112 3115 3119
3058 3053 3049 3046 3046 3042 3040 3039 3039 3039 3041 3042 3038 3036 3034 3028 3028 3027 3026 3028 3026 3025 3027 3030 3036 3040 3047 3053 3058 3062 3068 3074 3077 3083 3089 3092 3094 3092 3092 3095 3099 3103 3106 3109 3112
3054 3049 3046 3043 3042 3041 3041 3040 3039 3041 3045 3044 3040 3039 3035 3034 3034 3031 3030 3029 3029 3030 3031 3034 3038 3045 3050 3055 3060 3065 3067 3072 3078 3085 3091 3091 3093 3087 3087 3092 3094 3096 3099 3103 3106
3050 3046 3044 3042 3040 3040 3039 3040 3041 3044 3047 3046 3043 3041 3039 3038 3036 3035 3035 3035 3035 3035 3035 3039 3044 3049 3052 3056 3061 3063 3068 3074 3080 3082 3085 3084 3088 3083 3084 3088 3091 3093 3095 3097 3101
3046 3043 3041 3039 3040 3039 3039 3040 3043 3043 3050 3048 3044 3043 3042 3043 3041 3040 3040 3039 3040 3041 3040 3045 3048 3051 3056 3059 3062 3064 3069 3074 3081 3084 3085 3084 3086 3082 3084 3087 3090 3090 3091 3093 3096
3042 3040 3039 3037 3037 3038 3039 3042 3042 3046 3046 3046 3045 3046 3045 3044 3046 3045 3045 3044 3043 3044 3044 3048 3056 3057 3060 3061 3064 3066 3070 3071 3079 3082 3081 3082 3082 3081 3084 3084 3087 3088 3088 3089 3090
3038 3036 3035 3035 3035 3036 3039 3040 3042 3045 3047 3046 3045 3046 3048 3047 3048 3048 3048 3048 3049 3050 3052 3055 3058 3059 3062 3064 3069 3071 3073 3075 3074 3077 3079 3079 3079 3080 3078 3081 3083 3083 3085 3087 3087
3034 3033 3033 3033 3034 3036 3038 3039 3042 3044 3046 3046 3046 3047 3047 3048 3049 3048 3050 3050 3051 3052 3053 3057 3060 3062 3063 3066 3068 3069 3073 3075 3075 3080 3080 3078 3077 3076 3077 3080 3081 3082 3083 3084 3083
3029 3029 3030 3031 3032 3035 3036 3039 3042 3044 3045 3047 3047 3049 3050 3049 3050 3051 3053 3054 3054 3055 3055 3057 3059 3064 3065 3067 3068 3071 3072 3075 3077 3077 3077 3079 3074 3073 3077 3079 3079 3080 3080 3080 3080
3025 3026 3027 3029 3032 3032 3035 3038 3041 3043 3045 3046 3048 3049 3051 3053 3054 3054 3054 3055 3054 3055 3058 3058 3059 3063 3066 3068 3069 3071 3073 3075 3076 3077 3075 3076 3076 3075 3076 3077 3078 3078 3079 3079 3080
3020 3022 3024 3026 3028 3030 3034 3037 3040 3042 3044 3046 3047 3050 3052 3054 3057 3056 3056 3055 3055 3055 3056 3058 3061 3064 3068 3071 3070 3071 3072 3074 3074 3074 3074 3076 3075 3074 3075 3076 3077 3079 3078 3078 3078
3017 3018 3021 3022 3025 3028 3032 3036 3039 3041 3044 3045 3047 3049 3052 3054 3056 3056 3056 3056 3055 3056 3057 3058 3059 3061 3063 3064 3066 3067 3069 3072 3073 3074 3071 3069 3071 3072 3073 3074 3075 3075 3073 3073 3073
3013 3014 3016 3018 3021 3026 3030 3034 3037 3039 3042 3045 3047 3049 3052 3054 3055 3056 3055 3054 3056 3057 3059 3061 3061 3063 3064 3065 3066 3066 3066 3069 3070 3068 3068 3065 3068 3070 3071 3070 3070 3070 3069 3068 3068
3010 3012 3013 3016 3019 3024 3027 3031 3035 3037 3041 3044 3047 3049 3050 3052 3054 3054 3055 3056 3058 3060 3061 3063 3065 3065 3066 3066 3066 3065 3065 3066 3065 3063 3063 3062 3060 3063 3065 3065 3066 3064 3063 3062 3062
3007 3010 3012 3014 3017 3021 3025 3029 3033 3036 3039 3042 3045 3047 3049 3052 3054 3055 3056 3057 3057 3059 3061 3063 3064 3064 3064 3063 3063 3063 3059 3059 3059 3059 3059 3057 3056 3059 3057 3057 3057 3057 3057 3056 3056